Location: Bovenkerk
(52.2915°N, 4.8336°E)
Time: 23:50:35
(UTC+00:00)

Cosmos 1633 Rocket - Pass Details

Date: 09 April 2020
Orbit: 606 x 624 km, 82.5° (Epoch: 03 June)

Event Time Altitude Azimuth Distance (km) Brightness Sun altitude
Rises 22:50:51 0° 350° (N) 2,920 7.8 -28.7°
Reaches altitude 10° 22:53:06 10° 353° (N) 2,006 6.6 -28.8°
Enters shadow 22:56:14 43° 9° (N) 875 4.1 -28.9°
